Home   Weather   San Diego   Past weeks

Flag for USA Past Weather in San Diego, California, USA — Yesterday and Last 2 Weeks

Now
71 °F

Passing clouds.


Feels Like: 72 °F
Forecast: 67 / 79 °F
Wind: 12 mph from Southwest

Location: San Diego - North Island

Current Time: Aug 30, 2016 at 1:57:07 PM

Latest Report: Aug 30, 2016 at 12:52 PM


Visibility: 8 mi

Pressure: 29.85 "Hg

Humidity: 78%

Dew Point: 64 °F

Location of San DiegoLocation

Past Weather in San Diego — Graph

°F

San Diego Temperature Yesterday

Maximum temperature yesterday: 75 °F (at 2:52 PM)
Minimum temperature yesterday: 65 °F (at 1:52 AM)
Average temperature yesterday: 70 °F

High & Low Weather Summary for the Past Weeks

 TemperatureHumidityPressure
High80 °F (Aug 15, 1:52 PM)100% (Aug 23, 6:52 AM)30.05 "Hg (Aug 23, 6:52 AM)
Low62 °F (Aug 23, 6:52 AM)59% (Aug 26, 2:52 PM)29.79 "Hg (Aug 17, 5:52 PM)
Average70 °F78%29.92 "Hg
* Reported Aug 15 11:52 AM — Aug 30 11:52 AM, San Diego, Weather by CustomWeather, © 2016

Note: Actual official high and low records may vary slightly from our data, if they occured in-between our weather recording intervals... More about our weather records

Advertising

San Diego Weather History for the Previous 24 Hours

Scroll right to see more
 ConditionsComfort  
Time TempWeatherWind HumidityBarometerVisibility
11:52 AM
Tue, Aug 30
73 °FPassing clouds.8 mph74%29.86 "Hg8 mi
10:52 AM73 °FScattered clouds.7 mph76%29.86 "Hg9 mi
9:52 AM72 °FBroken clouds.7 mph78%29.87 "Hg7 mi
8:52 AM70 °FFog.3 mph84%29.86 "Hg6 mi
7:52 AM66 °FFog.5 mph93%29.86 "Hg5 mi
6:52 AM65 °FFog.No wind97%29.86 "Hg4 mi
5:52 AM66 °FFog.No wind93%29.86 "Hg4 mi
4:52 AM66 °FFog.3 mph93%29.86 "Hg6 mi
3:52 AM67 °FLow clouds.5 mph90%29.87 "Hg7 mi
2:52 AM67 °FLow clouds.6 mph90%29.87 "Hg7 mi
1:52 AM67 °FLow clouds.5 mph90%29.88 "Hg7 mi
12:52 AM66 °FPassing clouds.3 mph93%29.89 "Hg7 mi
11:52 PM
Mon, Aug 29
66 °FPassing clouds.3 mph93%29.88 "Hg7 mi
10:52 PM68 °FPassing clouds.5 mph90%29.88 "Hg7 mi
9:52 PM68 °FFog.No wind90%29.88 "Hg6 mi
8:52 PM69 °FPassing clouds.6 mph90%29.88 "Hg10 mi
7:52 PM70 °FPassing clouds.9 mph87%29.86 "Hg10 mi
6:52 PM71 °FPassing clouds.10 mph81%29.84 "Hg10 mi
5:52 PM73 °FPassing clouds.10 mph76%29.84 "Hg10 mi
4:52 PM72 °FPassing clouds.9 mph76%29.85 "Hg10 mi
3:52 PM74 °FPassing clouds.14 mph71%29.86 "Hg10 mi
2:52 PM75 °FPassing clouds.15 mph69%29.88 "Hg10 mi
1:52 PM74 °FPassing clouds.13 mph71%29.91 "Hg10 mi
Weather by CustomWeather, © 2016

See weather overviewHow to use our weather pages